CW4610 Weather Reports


Display with metric or nautical units.
time (UTC)temp
F
wind
direction
speed
MPH
gust
MPH
rain 1hr
in
rain 24hr
in
rain mn
in
humidity
%
barometer
mb
20260906031020 64 68 2.0 4.0 0.00 0.05 0.05 74 1016.2
20260906030059 65 90 3.0 6.0 0.00 0.05 0.05 72 1016.1
20260906025019 65 68 2.0 4.0 0.00 0.05 0.05 70 1016.1
20260906024019 66 113 1.0 3.0 0.00 0.05 0.05 69 1016.1
20260906023020 66 158 5.0 11.0 0.00 0.05 0.05 68 1015.9
20260906022059 66 180 7.0 13.0 0.00 0.05 0.05 67 1015.9
20260906021019 67 180 9.0 14.0 0.00 0.05 0.05 67 1015.9
20260906020019 67 180 9.0 16.0 0.00 0.05 0.05 69 1015.7
20260906015019 68 180 6.0 10.0 0.00 0.05 0.05 67 1015.7
20260906014020 68 180 7.0 12.0 0.00 0.05 0.05 68 1015.6
20260906013019 69 180 8.0 13.0 0.00 0.05 0.05 67 1015.6
20260906012019 69 180 8.0 14.0 0.00 0.05 0.05 66 1015.6
20260906011019 69 180 8.0 12.0 0.00 0.05 0.05 64 1015.5
20260906010019 70 180 9.0 13.0 0.00 0.05 0.05 62 1015.5
20260906005020 70 180 8.0 13.0 0.00 0.05 0.05 61 1015.5
20260906004020 71 180 7.0 12.0 0.00 0.05 0.05 61 1015.5
20260906003019 71 180 8.0 13.0 0.00 0.05 0.05 59 1015.5
20260906002019 71 180 7.0 11.0 0.00 0.05 0.05 59 1015.5
20260906001019 71 180 6.0 9.0 0.00 0.05 0.05 58 1015.5
20260906000020 71 180 5.0 7.0 0.00 0.05 0.05 60 1015.5
20260905235019 71 180 3.0 5.0 0.00 0.05 0.05 60 1015.5
20260905234019 70 135 2.0 4.0 0.00 0.05 0.05 60 1015.5
20260905233019 70 135 3.0 6.0 0.00 0.05 0.05 64 1015.6
20260905232019 70 135 3.0 5.0 0.00 0.05 0.05 63 1015.6
20260905231018 70 135 4.0 7.0 0.00 0.05 0.05 62 1015.7
20260905230059 70 68 4.0 8.0 0.00 0.05 0.05 61 1015.7
20260905225018 70 90 4.0 8.0 0.00 0.05 0.05 60 1015.6
20260905224020 71 68 4.0 9.0 0.00 0.05 0.05 60 1015.8
20260905223059 71 68 5.0 9.0 0.00 0.05 0.05 59 1016.0
20260905222019 72 135 3.0 6.0 0.00 0.05 0.05 55 1016.0
20260905221020 72 113 2.0 5.0 0.00 0.05 0.05 51 1016.1
20260905220018 73 0 2.0 5.0 0.00 0.05 0.05 56 1016.1
20260905215019 72 135 2.0 4.0 0.00 0.05 0.05 56 1016.1
20260905214019 72 135 3.0 5.0 0.00 0.05 0.05 60 1016.1
20260905213019 72 113 1.0 4.0 0.00 0.05 0.05 59 1016.1
20260905212018 72 113 2.0 5.0 0.00 0.05 0.05 58 1016.1
20260905211019 71 225 2.0 4.0 0.00 0.05 0.05 60 1016.3
20260905210018 71 225 2.0 4.0 0.00 0.05 0.05 64 1016.3
20260905205019 71 203 0.0 2.0 0.00 0.05 0.05 62 1016.4
20260905204019 71 270 0.0 1.0 0.00 0.05 0.05 62 1016.5
20260905203019 70 248 0.0 2.0 0.00 0.05 0.05 61 1016.5
20260905202024 70 113 1.0 3.0 0.00 0.05 0.05 62 1016.5
20260905201042 71 135 1.0 5.0 0.00 0.05 0.05 62 1016.6
20260905200018 70 23 1.0 4.0 0.00 0.05 0.05 65 1016.6
20260905195018 70 180 2.0 5.0 0.00 0.05 0.05 65 1016.6
20260905194059 70 0 1.0 2.0 0.00 0.05 0.05 70 1016.6
20260905193019 70 68 1.0 4.0 0.00 0.05 0.05 66 1016.7
20260905192018 70 68 2.0 4.0 0.00 0.05 0.05 68 1016.7
20260905191018 70 90 3.0 7.0 0.00 0.05 0.05 68 1016.9
20260905190019 69 113 3.0 7.0 0.00 0.05 0.05 69 1017.0
20260905185018 68 203 2.0 4.0 0.00 0.05 0.05 71 1017.1
20260905184018 69 113 2.0 4.0 0.00 0.05 0.05 69 1017.1
20260905183058 70 180 2.0 4.0 0.00 0.05 0.05 67 1017.2
20260905182018 70 225 1.0 4.0 0.00 0.05 0.05 70 1017.3
20260905181018 69 113 1.0 2.0 0.00 0.05 0.05 72 1017.4
20260905180018 68 90 1.0 2.0 0.00 0.05 0.05 72 1017.5
20260905175059 68 23 1.0 4.0 0.00 0.05 0.05 76 1017.5
20260905174018 66 338 1.0 3.0 0.00 0.05 0.05 79 1017.5
20260905173035 66 315 2.0 4.0 0.00 0.05 0.05 78 1017.5
20260905172018 65 225 1.0 3.0 0.00 0.05 0.05 82 1017.4
20260905171018 64 293 1.0 2.0 0.00 0.05 0.05 85 1017.5
20260905170019 63 338 1.0 3.0 0.00 0.05 0.05 88 1017.5
20260905165058 62 0 1.0 2.0 0.00 0.05 0.05 88 1017.5
20260905164018 62 113 0.0 3.0 0.01 0.05 0.05 89 1017.4
20260905163018 61 158 0.0 1.0 0.01 0.05 0.05 93 1017.4
20260905162058 60 225 1.0 2.0 0.01 0.05 0.05 94 1017.4
20260905161018 59 180 0.0 1.0 0.01 0.05 0.05 95 1017.4
20260905160039 59 158 1.0 2.0 0.01 0.05 0.05 96 1017.3
20260905155019 58 135 0.0 2.0 0.01 0.05 0.05 97 1017.3
20260905154018 57 68 1.0 2.0 0.00 0.04 0.04 97 1017.1
20260905153058 57 23 1.0 2.0 0.00 0.04 0.04 97 1017.1
20260905152018 56 23 1.0 2.0 0.00 0.04 0.04 96 1017.1
20260905151058 56 45 1.0 2.0 0.00 0.04 0.04 96 1017.1
20260905150018 56 0 0.0 2.0 0.00 0.04 0.04 96 1017.1
20260905145018 56 68 0.0 1.0 0.00 0.04 0.04 96 1017.1
20260905144019 56 68 1.0 2.0 0.00 0.04 0.04 96 1017.1
20260905143018 56 23 0.0 2.0 0.00 0.04 0.04 96 1017.1
20260905142018 56 23 0.0 1.0 0.00 0.04 0.04 96 1017.1
20260905141058 56 23 1.0 3.0 0.00 0.04 0.04 96 1017.1
20260905140017 56 23 2.0 3.0 0.00 0.04 0.04 96 1016.8
20260905135018 56 45 1.0 2.0 0.01 0.04 0.04 95 1016.8
20260905134017 56 68 2.0 3.0 0.02 0.04 0.04 95 1016.6
20260905133018 56 113 1.0 2.0 0.02 0.04 0.04 95 1016.7
20260905132058 57 113 1.0 2.0 0.03 0.04 0.04 95 1016.8
20260905131018 57 113 0.0 2.0 0.03 0.04 0.04 95 1016.8
20260905130057 57 113 1.0 2.0 0.04 0.04 0.04 95 1016.7
20260905125057 57 113 0.0 2.0 0.03 0.03 0.03 95 1016.7
20260905124019 57 90 1.0 3.0 0.02 0.02 0.02 95 1016.6
20260905123030 57 90 1.0 2.0 0.02 0.02 0.02 94 1016.6
20260905122020 57 90 1.0 2.0 0.01 0.01 0.01 94 1016.6
20260905121020 57 90 1.0 2.0 0.01 0.01 0.01 94 1016.6
20260905120020 57 90 1.0 2.0 0.00 0.00 0.00 94 1016.5
20260905115020 57 90 1.0 3.0 0.00 0.00 0.00 93 1016.5
20260905114019 57 68 1.0 3.0 0.00 0.00 0.00 93 1016.4
20260905113100 57 68 1.0 2.0 0.00 0.00 0.00 93 1016.4
20260905112020 57 68 0.0 2.0 0.00 0.00 0.00 93 1016.4
20260905111020 58 90 2.0 3.0 0.00 0.00 0.00 92 1016.3
20260905110019 58 113 0.0 1.0 0.00 0.00 0.00 92 1016.1
20260905105019 58 113 0.0 2.0 0.00 0.00 0.00 92 1016.1
20260905104049 58 68 2.0 3.0 0.00 0.00 0.00 92 1016.1
20260905103020 58 68 0.0 2.0 0.00 0.00 0.00 91 1016.1
20260905102059 58 90 0.0 1.0 0.00 0.00 0.00 91 1016.1
20260905101019 58 90 0.0 1.0 0.00 0.00 0.00 91 1016.0
20260905100019 58 113 0.0 1.0 0.00 0.00 0.00 91 1016.0
20260905095020 58 113 1.0 2.0 0.00 0.00 0.00 91 1016.1
20260905094117 58 68 0.0 1.0 0.00 0.00 0.00 90 1016.1
20260905093019 58 63 0.0 0.0 0.00 0.00 0.00 90 1016.0
20260905092019 58 68 1.0 3.0 0.00 0.00 0.00 90 1016.0
20260905091020 58 45 1.0 2.0 0.00 0.00 0.00 90 1015.6
20260905090019 58 42 0.0 0.0 0.00 0.00 0.00 90 1015.6
20260905085019 58 42 0.0 0.0 0.00 0.00 0.00 90 1015.6
20260905084059 58 45 0.0 1.0 0.00 0.00 0.00 90 1015.5
20260905083019 58 64 0.0 0.0 0.00 0.00 0.00 90 1015.5
20260905082019 59 64 0.0 0.0 0.00 0.00 0.00 90 1015.5
20260905081100 59 64 0.0 0.0 0.00 0.00 0.00 89 1015.5
20260905080019 59 64 0.0 0.0 0.00 0.00 0.00 89 1015.5
20260905075019 59 64 0.0 0.0 0.00 0.00 0.00 89 1015.5
20260905074059 59 64 0.0 0.0 0.00 0.00 0.00 89 1015.5
20260905073059 59 64 0.0 0.0 0.00 0.00 0.00 89 1015.5
20260905072100 59 64 0.0 0.0 0.00 0.00 0.00 89 1015.5
20260905071046 59 64 0.0 0.0 0.00 0.00 0.00 88 1015.5
20260905070019 59 64 0.0 0.0 0.00 0.00 0.00 88 1015.4
20260905065018 59 109 0.0 0.0 0.00 0.00 0.00 88 1015.4
20260905064046 59 109 0.0 0.0 0.00 0.00 0.00 88 1015.5
20260905063031 59 109 0.0 0.0 0.00 0.00 0.00 87 1015.4
20260905062018 60 113 1.0 2.0 0.00 0.00 0.00 88 1015.4
20260905061018 60 114 0.0 0.0 0.00 0.00 0.00 87 1015.5
20260905060058 60 114 0.0 0.0 0.00 0.00 0.00 86 1015.4
20260905055019 60 114 0.0 0.0 0.00 0.00 0.00 86 1015.3
20260905054018 60 117 0.0 0.0 0.00 0.00 0.00 86 1015.3
20260905053058 60 117 0.0 0.0 0.00 0.00 0.00 86 1015.2
20260905052018 60 117 0.0 0.0 0.00 0.00 0.00 85 1015.1
20260905051019 60 113 1.0 2.0 0.00 0.00 0.00 85 1015.1
20260905050017 61 90 0.0 1.0 0.00 0.00 0.00 85 1015.2
20260905045058 61 87 0.0 0.0 0.00 0.00 0.00 85 1015.2
20260905044018 61 90 1.0 2.0 0.00 0.00 0.00 84 1015.1
20260905043017 61 90 1.0 2.0 0.00 0.00 0.00 84 1015.1
20260905042020 61 135 2.0 3.0 0.00 0.00 0.00 84 1015.1
20260905041020 61 135 1.0 3.0 0.00 0.00 0.00 83 1015.1
20260905040020 62 90 2.0 3.0 0.00 0.00 0.00 82 1015.0
20260905035019 62 113 2.0 4.0 0.00 0.00 0.00 82 1015.0
20260905034059 62 113 2.0 5.0 0.00 0.00 0.00 81 1014.9
20260905033020 62 90 2.0 5.0 0.00 0.00 0.00 82 1014.6
20260905032020 63 103 0.0 0.0 0.00 0.00 0.00 80 1014.6